Hayward, WI

3:28 AM CST on February 10, 2016 (GMT -0600)
Sawyer County

Weather History for KHYR - January, 2012

Change the Weather History Date:

Thursday, January 12, 2012

  Actual Average Record
Temperature  
Mean Temperature 11 °F -  
Max Temperature 12 °F - - ()
Min Temperature 10 °F - - ()
Degree Days  
Heating Degree Days 54    
Moisture  
Dew Point 7 °F    
Average Humidity 82    
Maximum Humidity 85    
Minimum Humidity 77    
Precipitation  
Precipitation 0.06 in - - ()
Sea Level Pressure  
Sea Level Pressure 29.76 in    
Wind  
Wind Speed 5 mph (NNW)    
Max Wind Speed 9 mph    
Max Gust Speed -    
Visibility 2 miles    
Events Snow    
T = Trace of Precipitation, MM = Missing Value Source: NWS Daily Summary

Daily Weather History Graph

Daily Weather History Graph

Search for Another Location

Airport or City:

Trip Planner

Search our weather history database for the weather conditions in past years. The results will help you decide how hot, cold, wet, or windy it might be!

Date:

Astronomy

Jan. 12, 2012 Rise Set
Actual Time 7:45 AM CST 4:42 PM CST
Civil Twilight 7:11 AM CST 5:16 PM CST
Nautical Twilight 6:34 AM CST 5:53 PM CST
Astronomical Twilight 5:58 AM CST 6:29 PM CST
Moon 9:04 PM CST (1/12) 9:15 AM CST (1/12)
Length of Visible Light 10h 04m
Length of Day
8h 57m
Waning Gibbous, 87% of the Moon is Illuminated
Jan 12
Waning Gibbous
Jan 16
Last Quarter
Jan 23
New
Jan 30
First Quarter
Feb 7
Full

Hourly Weather History & Observations

Time (CST) Temp. Windchill Dew Point Humidity Pressure Visibility Wind Dir Wind Speed Gust Speed Precip Events Conditions
12:53 AM 12.9 °F 3.8 °F 8.1 °F 81% 29.81 in 5.0 mi Variable 5.8 mph - 0.00 in Snow Light Snow
1:17 AM 12.2 °F 6.1 °F 8.6 °F 85% 29.75 in 2.5 mi Variable 3.5 mph - 0.00 in Snow Light Snow
1:25 AM 12.2 °F 1.7 °F 6.8 °F 79% 29.75 in 4.0 mi Variable 6.9 mph - 0.00 in Snow Light Snow
1:53 AM 12.0 °F - 7.0 °F 80% 29.82 in 3.0 mi Calm Calm - 0.00 in Snow Light Snow
2:42 AM 10.4 °F 0.8 °F 6.8 °F 85% 29.76 in 2.0 mi Variable 5.8 mph - 0.00 in Snow Light Snow
2:53 AM 10.9 °F 1.4 °F 7.0 °F 84% 29.82 in 2.0 mi Variable 5.8 mph - 0.00 in Snow Light Snow
3:15 AM 10.4 °F 4.0 °F 6.8 °F 85% 29.75 in 1.8 mi Variable 3.5 mph - 0.00 in Snow Light Snow
3:53 AM 10.9 °F 4.7 °F 7.0 °F 84% 29.81 in 1.2 mi Variable 3.5 mph - 0.00 in Snow Light Snow
4:00 AM 10.4 °F 2.2 °F 6.8 °F 85% 29.75 in 0.8 mi Variable 4.6 mph - 0.02 in Snow Light Snow
4:16 AM 10.4 °F 4.0 °F 6.8 °F 85% 29.75 in 1.0 mi Variable 3.5 mph - 0.02 in Snow Light Snow
4:40 AM 10.4 °F 0.8 °F 6.8 °F 85% 29.74 in 1.2 mi Variable 5.8 mph - 0.02 in Snow Light Snow
4:53 AM 10.9 °F 2.9 °F 6.1 °F 81% 29.81 in 1.0 mi Variable 4.6 mph - 0.02 in Snow Light Snow
5:11 AM 10.4 °F 0.8 °F 6.8 °F 85% 29.74 in 0.8 mi Variable 5.8 mph - 0.01 in Snow Light Snow
5:25 AM 10.4 °F 0.8 °F 6.8 °F 85% 29.74 in 1.0 mi Variable 5.8 mph - 0.01 in Snow Light Snow
5:31 AM 10.4 °F 2.2 °F 6.8 °F 85% 29.74 in 1.2 mi Variable 4.6 mph - 0.01 in Snow Light Snow
5:53 AM 10.0 °F 3.6 °F 6.1 °F 84% 29.81 in 1.5 mi Variable 3.5 mph - 0.01 in Snow Light Snow
6:26 AM 10.4 °F 4.0 °F 6.8 °F 85% 29.74 in 1.0 mi Variable 3.5 mph - 0.00 in Snow Light Snow
6:34 AM 10.4 °F 2.2 °F 6.8 °F 85% 29.74 in 1.2 mi Variable 4.6 mph - 0.00 in Snow Light Snow
6:44 AM 10.4 °F -0.4 °F 6.8 °F 85% 29.74 in 1.0 mi Variable 6.9 mph - 0.00 in Snow Light Snow
6:53 AM 10.0 °F 1.8 °F 6.1 °F 84% 29.81 in 1.0 mi Variable 4.6 mph - 0.02 in Snow Light Snow
7:07 AM 10.4 °F 2.2 °F 5.0 °F 79% 29.74 in 1.2 mi Variable 4.6 mph - 0.00 in Snow Light Snow
7:38 AM 10.4 °F 2.2 °F 5.0 °F 79% 29.74 in 2.0 mi Variable 4.6 mph - 0.00 in Snow Light Snow
7:53 AM 10.0 °F 0.4 °F 5.0 °F 80% 29.82 in 3.0 mi Variable 5.8 mph - 0.00 in Snow Light Snow
8:05 AM 10.4 °F 4.0 °F 5.0 °F 79% 29.74 in 2.0 mi Variable 3.5 mph - 0.00 in Snow Light Snow
8:41 AM 10.4 °F 4.0 °F 6.8 °F 85% 29.74 in 1.8 mi Variable 3.5 mph - 0.00 in Snow Light Snow
8:53 AM 10.0 °F 1.8 °F 6.1 °F 84% 29.82 in 1.2 mi Variable 4.6 mph - 0.00 in Snow Light Snow
9:01 AM 10.4 °F 0.8 °F 6.8 °F 85% 29.74 in 1.0 mi Variable 5.8 mph - 0.00 in Snow Light Snow
9:53 AM 10.9 °F 1.4 °F 6.1 °F 81% 29.81 in 1.8 mi Variable 5.8 mph - 0.00 in Snow Light Snow
10:13 AM 10.4 °F -0.4 °F 6.8 °F 85% 29.73 in 3.0 mi Variable 6.9 mph - 0.00 in Snow Light Snow
10:53 AM 10.9 °F 0.2 °F 6.1 °F 81% 29.80 in 3.0 mi NNW 6.9 mph - 0.00 in Snow Light Snow
11:08 AM 10.4 °F 4.0 °F 6.8 °F 85% 29.71 in 2.5 mi Variable 3.5 mph - 0.00 in Snow Light Snow
11:38 AM 10.4 °F 0.8 °F 6.8 °F 85% 29.70 in 1.2 mi Variable 5.8 mph - 0.01 in Snow Light Snow
11:45 AM 12.2 °F 4.3 °F 6.8 °F 79% 29.70 in 1.0 mi Variable 4.6 mph - 0.01 in Snow Light Snow
11:53 AM 12.0 °F 4.1 °F 7.0 °F 80% 29.78 in 1.2 mi Variable 4.6 mph - 0.01 in Snow Light Snow
12:10 PM 12.2 °F 2.9 °F 6.8 °F 79% 29.69 in 1.0 mi Variable 5.8 mph - 0.00 in Snow Light Snow
12:49 PM 12.2 °F 1.7 °F 6.8 °F 79% 29.68 in 1.5 mi Variable 6.9 mph - 0.00 in Snow Light Snow
12:53 PM 12.9 °F 0.7 °F 7.0 °F 77% 29.76 in 1.5 mi NNW 9.2 mph - 0.00 in Snow Light Snow
1:08 PM 12.2 °F 0.7 °F 6.8 °F 79% 29.68 in 0.8 mi NNW 8.1 mph - 0.00 in Snow Light Snow
1:30 PM 12.2 °F 4.3 °F 8.6 °F 85% 29.68 in 0.5 mi Variable 4.6 mph - 0.00 in Snow Snow
1:53 PM 12.9 °F 3.8 °F 7.0 °F 77% 29.76 in 0.5 mi NNW 5.8 mph - 0.00 in Snow Snow
2:09 PM 12.2 °F 2.9 °F 6.8 °F 79% 29.69 in 1.0 mi Variable 5.8 mph - 0.00 in Snow Light Snow
2:17 PM 12.2 °F 1.7 °F 6.8 °F 79% 29.69 in 1.5 mi Variable 6.9 mph - 0.00 in Snow Light Snow
2:53 PM 12.0 °F 2.7 °F 7.0 °F 80% 29.78 in 1.8 mi Variable 5.8 mph - 0.00 in Snow Light Snow
3:00 PM 12.2 °F 1.7 °F 6.8 °F 79% 29.70 in 2.5 mi Variable 6.9 mph - 0.00 in Snow Light Snow
3:13 PM 12.2 °F 0.7 °F 6.8 °F 79% 29.70 in 3.0 mi NNW 8.1 mph - 0.00 in Snow Light Snow
3:51 PM 10.4 °F -1.5 °F 6.8 °F 85% 29.71 in 2.5 mi North 8.1 mph - 0.00 in Snow Light Snow
3:53 PM 10.9 °F -0.8 °F 5.0 °F 77% 29.80 in 3.0 mi North 8.1 mph - 0.00 in Snow Light Snow
4:08 PM 10.4 °F 2.2 °F 6.8 °F 85% 29.72 in 2.0 mi Variable 4.6 mph - 0.00 in Snow Light Snow
4:18 PM 10.4 °F 0.8 °F 6.8 °F 85% 29.72 in 1.8 mi Variable 5.8 mph - 0.00 in Snow Light Snow
4:28 PM 10.4 °F 0.8 °F 5.0 °F 79% 29.72 in 2.0 mi Variable 5.8 mph - 0.00 in Snow Light Snow
4:43 PM 10.4 °F 4.0 °F 5.0 °F 79% 29.72 in 3.0 mi Variable 3.5 mph - 0.00 in Snow Light Snow
4:53 PM 10.9 °F 4.7 °F 6.1 °F 81% 29.81 in 2.5 mi Variable 3.5 mph - 0.00 in Snow Light Snow
5:07 PM 10.4 °F 4.0 °F 5.0 °F 79% 29.73 in 3.0 mi Variable 3.5 mph - 0.00 in Snow Light Snow
5:53 PM 10.9 °F 0.2 °F 5.0 °F 77% 29.81 in 3.0 mi Variable 6.9 mph - 0.00 in Snow Light Snow
6:53 PM 10.9 °F 1.4 °F 5.0 °F 77% 29.82 in 4.0 mi Variable 5.8 mph - 0.00 in Snow Light Snow
7:53 PM 10.9 °F 1.4 °F 6.1 °F 81% 29.83 in 3.0 mi NNW 5.8 mph - 0.00 in Snow Light Snow
8:53 PM 10.9 °F 1.4 °F 6.1 °F 81% 29.83 in 4.0 mi Variable 5.8 mph - 0.00 in Snow Light Snow
9:53 PM 12.0 °F 4.1 °F 7.0 °F 80% 29.83 in 3.0 mi Variable 4.6 mph - 0.00 in Snow Light Snow
10:53 PM 12.0 °F 2.7 °F 7.0 °F 80% 29.83 in 3.0 mi Variable 5.8 mph - 0.00 in Snow Light Snow
11:53 PM 12.0 °F 4.1 °F 7.0 °F 80% 29.84 in 4.0 mi Variable 4.6 mph - 0.00 in Snow Light Snow